Location: Saratoga Springs
(43.0831°N, 73.7850°W)
Time: 02:38:51
(UTC-05:00)

BlueWalker 3 - Visible Passes

Search period start: 27 February 2024 00:00
Search period end: 08 March 2024 00:00
Orbit: 486 x 500 km, 53.2° (Epoch: 26 February)

Date Brightness Start Highest point End Pass type
(mag) Time Alt. Az. Time Alt. Az. Time Alt. Az.
27 Feb 3.8 18:54:56 10° NW 18:57:45 19° N 18:59:14 16° NE visible
27 Feb 4.8 20:33:00 10° NW 20:33:43 15° NW 20:33:43 15° NW visible
28 Feb 3.8 18:31:04 10° NW 18:33:52 19° N 18:36:26 11° NE visible
28 Feb 3.9 20:09:09 10° NW 20:10:55 24° NW 20:10:55 24° NW visible
29 Feb 3.8 18:07:12 10° NW 18:09:58 19° N 18:12:44 10° ENE visible
29 Feb 2.8 19:45:17 10° NW 19:48:07 39° N 19:48:07 39° N visible
01 Mar 2.2 19:21:23 10° NW 19:25:03 46° NNE 19:25:23 45° NE visible
02 Mar 2.4 18:57:29 10° NW 19:01:08 45° NNE 19:02:41 28° E visible
02 Mar 4.7 20:36:00 10° WNW 20:37:10 17° W 20:37:10 17° W visible
03 Mar 2.4 18:33:34 10° NW 18:37:12 43° NNE 18:40:04 15° E visible
03 Mar 3.8 20:12:02 10° WNW 20:14:33 27° WSW 20:14:33 27° WSW visible
04 Mar 3.3 19:48:04 10° WNW 19:51:25 31° SW 19:52:02 29° SSW visible
05 Mar 3.4 19:24:04 10° WNW 19:27:28 32° SW 19:29:37 18° S visible
06 Mar 3.4 19:00:04 10° WNW 19:03:30 33° SW 19:06:54 10° SSE visible
07 Mar 3.4 18:36:03 10° WNW 18:39:30 35° SW 18:42:57 10° SSE visible
